Regional Weather Roundup
Issued by NWS Memphis, TN

Home | Current Version | Previous Version | Text Only | Print | Product List | Glossary On
Versions: 1 2 3 4 5 6 7 8 9 10 11 12 13 14 15 16 17 18 19 20 21 22 23 24 25 26 27 28 29 30 31 32 33 34 35 36 37 38 39 40 41 42 43 44 45 46 47 48 49 50
000
ASUS44 KMEG 032010
RWRMEG
MEMPHIS CWA HOURLY WEATHER ROUNDUP
NATIONAL WEATHER SERVICE MEMPHIS TN
200 PM CST TUE MAR 03 2015

...WEST TENNESSEE...

CITY           SKY/WX    TMP DP  RH WIND       PRES   REMARKS
MEMPHIS INTL   LGT RAIN  57  55  93 SW10      29.97F VSB 1
NWS MEMPHIS      N/A     57 N/A N/A MISG        N/A
JACKSON        LGT RAIN  61  56  83 SW12      29.96F
LEXINGTON      CLOUDY    57  57 100 S8        29.96F
SAVANNAH       CLOUDY    61  61 100 S7        30.00F
DYERSBURG      CLOUDY    57  45  62 SW9       29.95F
UNION CITY     CLOUDY    55  55 100 S9        29.90F
PARIS          CLOUDY    57  55  94 SW13      29.93F


...EASTERN ARKANSAS...

CITY           SKY/WX    TMP DP  RH WIND       PRES   REMARKS
JONESBORO      CLOUDY    47  46  97 SW15      29.93F
WEST MEMPHIS   LGT RAIN  51  51 100 S8        29.95F FOG
BATESVILLE     CLOUDY    57  50  77 SW15      29.91F
NEWPORT        CLOUDY    51  47  86 S16       29.93F
WALNUT RIDGE   PTSUNNY   45  39  81 SW16      29.90F
BLYTHEVILLE    CLOUDY    52  52 100 SW21G28   29.94F
NW BLYTHEVILLE FOG       52  50  93 SW15G22   29.94F VSB 3/4
SEARCY         PTSUNNY   58  49  72 S10       29.91F
STUTTGART      CLOUDY    48  46  93 S10       29.97F
PINE BLUFF     CLOUDY    50  49  96 SW6       29.96F FOG
MONTICELLO     CLOUDY    56  55  97 SW5       29.97F


...NORTH MISSISSIPPI...

CITY           SKY/WX    TMP DP  RH WIND       PRES   REMARKS
TUPELO         CLOUDY    60  57  89 S7        30.01F
OXFORD         CLOUDY    59  59 100 S3        29.99F FOG
OLIVE BRANCH   LGT RAIN  55  55 100 SW9       29.97F FOG
TUNICA         CLOUDY    52  52 100 S6        29.98F FOG
CLARKSDALE     CLOUDY    54  54 100 SW6       29.99F VSB 1/4
CORINTH        CLOUDY    59  55  88 S7        30.00F
GREENWOOD      CLOUDY    73  64  73 SW15      29.98F
COLUMBUS       PTSUNNY   68  66  94 S6        30.01F
STARKVILLE     FAIR      70  64  83 S5        30.02F
GOLDEN TRIANGL PTSUNNY   72  66  83 S12       30.02F


...SOUTHEAST MISSOURI...

CITY           SKY/WX    TMP DP  RH WIND       PRES   REMARKS
WEST PLAINS    CLOUDY    51  46  83 SW8       29.83F
POPLAR BLUFF   CLOUDY    41  38  89 SW10      29.87F FOG
CAPE GIRARDEAU LGT RAIN  40  40 100 S8        29.88F VSB 1/4 WCI  34


...NORTHWEST ALABAMA...

CITY           SKY/WX    TMP DP  RH WIND       PRES   REMARKS
MUSCLE SHOALS  CLOUDY    63  59  87 S10       30.03F


...MIDDLE TENNESSEE...

CITY           SKY/WX    TMP DP  RH WIND       PRES   REMARKS
NASHVILLE      CLOUDY    62  57  83 S13G21    29.98F
CLARKSVILLE    CLOUDY    62  58  86 SW12G21   29.93F
COLUMBIA       CLOUDY   N/A N/A N/A SW10      29.99F


...WESTERN KENTUCKY...

CITY           SKY/WX    TMP DP  RH WIND       PRES   REMARKS
PADUCAH        FOG       49  48  97 SW8       29.89F VSB 1/4
FORT CAMPBELL  CLOUDY    62  57  84 SW15G23   29.92F


...CENTRAL ARKANSAS...

CITY           SKY/WX    TMP DP  RH WIND       PRES   REMARKS
LITTLE ROCK    CLOUDY    52  46  80 SW9       29.94F


SKY/WX REPORTED AS FAIR MEANS FEW OR NO CLOUDS BELOW
12 THOUSAND FEET.




USA.gov is the U.S. government's official web portal to all federal, state and local government web resources and services.